owner,sensor,date,latitude,longitude,sea_surface_height_above_sea_level,qcFlag 
COMPS,ioos:station:USF.COMPS:ANM:1,2011-04-01T00:00:00Z,27.5400,-82.7400,-0.07,1111122 
COMPS,ioos:station:USF.COMPS:ANM:1,2011-04-01T00:06:00Z,27.5400,-82.7400,-0.041,1111122 
COMPS,ioos:station:USF.COMPS:ANM:1,2011-04-01T00:12:00Z,27.5400,-82.7400,-0.006,1111122 
COMPS,ioos:station:USF.COMPS:ANM:1,2011-04-01T00:18:00Z,27.5400,-82.7400,-0.002,1111122 
COMPS,ioos:station:USF.COMPS:ANM:1,2011-04-01T00:24:00Z,27.5400,-82.7400,0.036,1111122 
COMPS,ioos:station:USF.COMPS:ANM:1,2011-04-01T00:30:00Z,27.5400,-82.7400,0.041,1111122 
COMPS,ioos:station:USF.COMPS:ANM:1,2011-04-01T00:36:00Z,27.5400,-82.7400,0.023,1111122 
COMPS,ioos:station:USF.COMPS:ANM:1,2011-04-01T00:42:00Z,27.5400,-82.7400,0.014,1111122 
COMPS,ioos:station:USF.COMPS:ANM:1,2011-04-01T00:48:00Z,27.5400,-82.7400,0.024,1111122 
COMPS,ioos:station:USF.COMPS:ANM:1,2011-04-01T00:54:00Z,27.5400,-82.7400,-0.016,1111122 
COMPS,ioos:station:USF.COMPS:ANM:1,2011-04-01T01:00:00Z,27.5400,-82.7400,0.053,1111122 
COMPS,ioos:station:USF.COMPS:ANM:1,2011-04-01T01:06:00Z,27.5400,-82.7400,0.067,1111122 
COMPS,ioos:station:USF.COMPS:ANM:1,2011-04-01T01:12:00Z,27.5400,-82.7400,0.044,1111122 
COMPS,ioos:station:USF.COMPS:ANM:1,2011-04-01T01:18:00Z,27.5400,-82.7400,0.047,1111122 
COMPS,ioos:station:USF.COMPS:ANM:1,2011-04-01T01:24:00Z,27.5400,-82.7400,0.062,1111122 
COMPS,ioos:station:USF.COMPS:ANM:1,2011-04-01T01:30:00Z,27.5400,-82.7400,0.051,1111122 
COMPS,ioos:station:USF.COMPS:ANM:1,2011-04-01T01:36:00Z,27.5400,-82.7400,0.063,1111122 
COMPS,ioos:station:USF.COMPS:ANM:1,2011-04-01T01:42:00Z,27.5400,-82.7400,0.096,1111122 
COMPS,ioos:station:USF.COMPS:ANM:1,2011-04-01T01:48:00Z,27.5400,-82.7400,0.114,1111122 
COMPS,ioos:station:USF.COMPS:ANM:1,2011-04-01T01:54:00Z,27.5400,-82.7400,0.081,1111122 
COMPS,ioos:station:USF.COMPS:ANM:1,2011-04-01T02:00:00Z,27.5400,-82.7400,0.085,1111122 
COMPS,ioos:station:USF.COMPS:ANM:1,2011-04-01T02:06:00Z,27.5400,-82.7400,0.082,1111122 
COMPS,ioos:station:USF.COMPS:ANM:1,2011-04-01T02:12:00Z,27.5400,-82.7400,0.106,1111122 
COMPS,ioos:station:USF.COMPS:ANM:1,2011-04-01T02:18:00Z,27.5400,-82.7400,0.132,1111122 
COMPS,ioos:station:USF.COMPS:ANM:1,2011-04-01T02:24:00Z,27.5400,-82.7400,0.125,1111122 
COMPS,ioos:station:USF.COMPS:ANM:1,2011-04-01T02:30:00Z,27.5400,-82.7400,0.129,1111122 
COMPS,ioos:station:USF.COMPS:ANM:1,2011-04-01T02:36:00Z,27.5400,-82.7400,0.105,1111122 
COMPS,ioos:station:USF.COMPS:ANM:1,2011-04-01T02:42:00Z,27.5400,-82.7400,0.114,1111122 
COMPS,ioos:station:USF.COMPS:ANM:1,2011-04-01T02:48:00Z,27.5400,-82.7400,0.128,1111122 
COMPS,ioos:station:USF.COMPS:ANM:1,2011-04-01T02:54:00Z,27.5400,-82.7400,0.116,1111122 
COMPS,ioos:station:USF.COMPS:ANM:1,2011-04-01T03:00:00Z,27.5400,-82.7400,0.122,1111122 
COMPS,ioos:station:USF.COMPS:ANM:1,2011-04-01T03:06:00Z,27.5400,-82.7400,0.123,1111122 
COMPS,ioos:station:USF.COMPS:ANM:1,2011-04-01T03:12:00Z,27.5400,-82.7400,0.129,1111122 
COMPS,ioos:station:USF.COMPS:ANM:1,2011-04-01T03:18:00Z,27.5400,-82.7400,0.132,1111122 
COMPS,ioos:station:USF.COMPS:ANM:1,2011-04-01T03:24:00Z,27.5400,-82.7400,0.115,1111122 
COMPS,ioos:station:USF.COMPS:ANM:1,2011-04-01T03:30:00Z,27.5400,-82.7400,0.131,1111122 
COMPS,ioos:station:USF.COMPS:ANM:1,2011-04-01T03:36:00Z,27.5400,-82.7400,0.159,1111122 
COMPS,ioos:station:USF.COMPS:ANM:1,2011-04-01T03:42:00Z,27.5400,-82.7400,0.135,1111122 
COMPS,ioos:station:USF.COMPS:ANM:1,2011-04-01T03:48:00Z,27.5400,-82.7400,0.15,1111122 
COMPS,ioos:station:USF.COMPS:ANM:1,2011-04-01T03:54:00Z,27.5400,-82.7400,0.152,1111122 
COMPS,ioos:station:USF.COMPS:ANM:1,2011-04-01T04:00:00Z,27.5400,-82.7400,0.148,1111122 
COMPS,ioos:station:USF.COMPS:ANM:1,2011-04-01T04:06:00Z,27.5400,-82.7400,0.143,1111122 
COMPS,ioos:station:USF.COMPS:ANM:1,2011-04-01T04:12:00Z,27.5400,-82.7400,0.127,1111122 
COMPS,ioos:station:USF.COMPS:ANM:1,2011-04-01T04:18:00Z,27.5400,-82.7400,0.12,1111122 
COMPS,ioos:station:USF.COMPS:ANM:1,2011-04-01T04:24:00Z,27.5400,-82.7400,0.126,1111122 
COMPS,ioos:station:USF.COMPS:ANM:1,2011-04-01T04:30:00Z,27.5400,-82.7400,0.116,1111122 
COMPS,ioos:station:USF.COMPS:ANM:1,2011-04-01T04:36:00Z,27.5400,-82.7400,0.118,1111122 
COMPS,ioos:station:USF.COMPS:ANM:1,2011-04-01T04:42:00Z,27.5400,-82.7400,0.1,1111122 
COMPS,ioos:station:USF.COMPS:ANM:1,2011-04-01T04:48:00Z,27.5400,-82.7400,0.099,1111122 
COMPS,ioos:station:USF.COMPS:ANM:1,2011-04-01T04:54:00Z,27.5400,-82.7400,0.081,1111122 
COMPS,ioos:station:USF.COMPS:ANM:1,2011-04-01T05:00:00Z,27.5400,-82.7400,0.076,1111122 
COMPS,ioos:station:USF.COMPS:ANM:1,2011-04-01T05:06:00Z,27.5400,-82.7400,0.082,1111122 
COMPS,ioos:station:USF.COMPS:ANM:1,2011-04-01T05:12:00Z,27.5400,-82.7400,0.077,1111122 
COMPS,ioos:station:USF.COMPS:ANM:1,2011-04-01T05:18:00Z,27.5400,-82.7400,0.071,1111122 
COMPS,ioos:station:USF.COMPS:ANM:1,2011-04-01T05:24:00Z,27.5400,-82.7400,0.046,1111122 
COMPS,ioos:station:USF.COMPS:ANM:1,2011-04-01T05:30:00Z,27.5400,-82.7400,0.04,1111122 
COMPS,ioos:station:USF.COMPS:ANM:1,2011-04-01T05:36:00Z,27.5400,-82.7400,0.038,1111122 
COMPS,ioos:station:USF.COMPS:ANM:1,2011-04-01T05:42:00Z,27.5400,-82.7400,0.033,1111122 
COMPS,ioos:station:USF.COMPS:ANM:1,2011-04-01T05:48:00Z,27.5400,-82.7400,0.024,1111122 
COMPS,ioos:station:USF.COMPS:ANM:1,2011-04-01T05:54:00Z,27.5400,-82.7400,0.001,1111122 
COMPS,ioos:station:USF.COMPS:ANM:1,2011-04-01T06:00:00Z,27.5400,-82.7400,-0.019,1111122 
COMPS,ioos:station:USF.COMPS:ANM:1,2011-04-01T06:06:00Z,27.5400,-82.7400,-0.032,1111122 
COMPS,ioos:station:USF.COMPS:ANM:1,2011-04-01T06:12:00Z,27.5400,-82.7400,-0.034,1111122 
COMPS,ioos:station:USF.COMPS:ANM:1,2011-04-01T06:18:00Z,27.5400,-82.7400,-0.037,1111122 
COMPS,ioos:station:USF.COMPS:ANM:1,2011-04-01T06:24:00Z,27.5400,-82.7400,-0.049,1111122 
COMPS,ioos:station:USF.COMPS:ANM:1,2011-04-01T06:30:00Z,27.5400,-82.7400,-0.063,1111122 
COMPS,ioos:station:USF.COMPS:ANM:1,2011-04-01T06:36:00Z,27.5400,-82.7400,-0.068,1111122 
COMPS,ioos:station:USF.COMPS:ANM:1,2011-04-01T06:42:00Z,27.5400,-82.7400,-0.078,1111122 
COMPS,ioos:station:USF.COMPS:ANM:1,2011-04-01T06:48:00Z,27.5400,-82.7400,-0.101,1111122 
COMPS,ioos:station:USF.COMPS:ANM:1,2011-04-01T06:54:00Z,27.5400,-82.7400,-0.1,1111122 
COMPS,ioos:station:USF.COMPS:ANM:1,2011-04-01T07:00:00Z,27.5400,-82.7400,-0.111,1111122 
COMPS,ioos:station:USF.COMPS:ANM:1,2011-04-01T07:06:00Z,27.5400,-82.7400,-0.111,1111122 
COMPS,ioos:station:USF.COMPS:ANM:1,2011-04-01T07:12:00Z,27.5400,-82.7400,-0.105,1111122 
COMPS,ioos:station:USF.COMPS:ANM:1,2011-04-01T07:18:00Z,27.5400,-82.7400,-0.109,1111122 
COMPS,ioos:station:USF.COMPS:ANM:1,2011-04-01T07:24:00Z,27.5400,-82.7400,-0.104,1111122 
COMPS,ioos:station:USF.COMPS:ANM:1,2011-04-01T07:30:00Z,27.5400,-82.7400,-0.13,1111122 
COMPS,ioos:station:USF.COMPS:ANM:1,2011-04-01T07:36:00Z,27.5400,-82.7400,-0.144,1111122 
COMPS,ioos:station:USF.COMPS:ANM:1,2011-04-01T07:42:00Z,27.5400,-82.7400,-0.164,1111122 
COMPS,ioos:station:USF.COMPS:ANM:1,2011-04-01T07:48:00Z,27.5400,-82.7400,-0.133,1111122 
COMPS,ioos:station:USF.COMPS:ANM:1,2011-04-01T07:54:00Z,27.5400,-82.7400,-0.142,1111122 
COMPS,ioos:station:USF.COMPS:ANM:1,2011-04-01T08:00:00Z,27.5400,-82.7400,-0.15,1111122 
COMPS,ioos:station:USF.COMPS:ANM:1,2011-04-01T08:06:00Z,27.5400,-82.7400,-0.158,1111122 
COMPS,ioos:station:USF.COMPS:ANM:1,2011-04-01T08:12:00Z,27.5400,-82.7400,-0.137,1111122 
COMPS,ioos:station:USF.COMPS:ANM:1,2011-04-01T08:18:00Z,27.5400,-82.7400,-0.15,1111122 
COMPS,ioos:station:USF.COMPS:ANM:1,2011-04-01T08:24:00Z,27.5400,-82.7400,-0.167,1111122 
COMPS,ioos:station:USF.COMPS:ANM:1,2011-04-01T08:30:00Z,27.5400,-82.7400,-0.181,1111122 
COMPS,ioos:station:USF.COMPS:ANM:1,2011-04-01T08:36:00Z,27.5400,-82.7400,-0.186,1111122 
COMPS,ioos:station:USF.COMPS:ANM:1,2011-04-01T08:42:00Z,27.5400,-82.7400,-0.191,1111122 
COMPS,ioos:station:USF.COMPS:ANM:1,2011-04-01T08:48:00Z,27.5400,-82.7400,-0.188,1111122 
COMPS,ioos:station:USF.COMPS:ANM:1,2011-04-01T08:54:00Z,27.5400,-82.7400,-0.207,1111122 
COMPS,ioos:station:USF.COMPS:ANM:1,2011-04-01T09:00:00Z,27.5400,-82.7400,-0.219,1111122 
COMPS,ioos:station:USF.COMPS:ANM:1,2011-04-01T09:06:00Z,27.5400,-82.7400,-0.215,1111122 
COMPS,ioos:station:USF.COMPS:ANM:1,2011-04-01T09:12:00Z,27.5400,-82.7400,-0.224,1111122 
COMPS,ioos:station:USF.COMPS:ANM:1,2011-04-01T09:18:00Z,27.5400,-82.7400,-0.215,1111122 
COMPS,ioos:station:USF.COMPS:ANM:1,2011-04-01T09:24:00Z,27.5400,-82.7400,-0.214,1111122 
COMPS,ioos:station:USF.COMPS:ANM:1,2011-04-01T09:30:00Z,27.5400,-82.7400,-0.226,1111122 
COMPS,ioos:station:USF.COMPS:ANM:1,2011-04-01T09:36:00Z,27.5400,-82.7400,-0.236,1111122 
COMPS,ioos:station:USF.COMPS:ANM:1,2011-04-01T09:42:00Z,27.5400,-82.7400,-0.249,1111122 
COMPS,ioos:station:USF.COMPS:ANM:1,2011-04-01T09:48:00Z,27.5400,-82.7400,-0.236,1111122 
COMPS,ioos:station:USF.COMPS:ANM:1,2011-04-01T09:54:00Z,27.5400,-82.7400,-0.239,1111122 
COMPS,ioos:station:USF.COMPS:ANM:1,2011-04-01T10:00:00Z,27.5400,-82.7400,-0.251,1111122 
COMPS,ioos:station:USF.COMPS:ANM:1,2011-04-01T10:06:00Z,27.5400,-82.7400,-0.25,1111122 
COMPS,ioos:station:USF.COMPS:ANM:1,2011-04-01T10:12:00Z,27.5400,-82.7400,-0.251,1111122 
COMPS,ioos:station:USF.COMPS:ANM:1,2011-04-01T10:18:00Z,27.5400,-82.7400,-0.237,1111122 
COMPS,ioos:station:USF.COMPS:ANM:1,2011-04-01T10:24:00Z,27.5400,-82.7400,-0.238,1111122 
COMPS,ioos:station:USF.COMPS:ANM:1,2011-04-01T10:30:00Z,27.5400,-82.7400,-0.239,1111122 
COMPS,ioos:station:USF.COMPS:ANM:1,2011-04-01T10:36:00Z,27.5400,-82.7400,-0.254,1111122 
COMPS,ioos:station:USF.COMPS:ANM:1,2011-04-01T10:42:00Z,27.5400,-82.7400,-0.254,1111122 
COMPS,ioos:station:USF.COMPS:ANM:1,2011-04-01T10:48:00Z,27.5400,-82.7400,-0.249,1111122 
COMPS,ioos:station:USF.COMPS:ANM:1,2011-04-01T10:54:00Z,27.5400,-82.7400,-0.23,1111122 
COMPS,ioos:station:USF.COMPS:ANM:1,2011-04-01T11:00:00Z,27.5400,-82.7400,-0.228,1111122 
COMPS,ioos:station:USF.COMPS:ANM:1,2011-04-01T11:06:00Z,27.5400,-82.7400,-0.251,1111122 
COMPS,ioos:station:USF.COMPS:ANM:1,2011-04-01T11:12:00Z,27.5400,-82.7400,-0.256,1111122 
COMPS,ioos:station:USF.COMPS:ANM:1,2011-04-01T11:18:00Z,27.5400,-82.7400,-0.203,1111122 
COMPS,ioos:station:USF.COMPS:ANM:1,2011-04-01T11:24:00Z,27.5400,-82.7400,-0.182,1111122 
COMPS,ioos:station:USF.COMPS:ANM:1,2011-04-01T11:30:00Z,27.5400,-82.7400,-0.18,1111122 
COMPS,ioos:station:USF.COMPS:ANM:1,2011-04-01T11:36:00Z,27.5400,-82.7400,-0.184,1111122 
COMPS,ioos:station:USF.COMPS:ANM:1,2011-04-01T11:42:00Z,27.5400,-82.7400,-0.191,1111122 
COMPS,ioos:station:USF.COMPS:ANM:1,2011-04-01T11:48:00Z,27.5400,-82.7400,-0.167,1111122 
COMPS,ioos:station:USF.COMPS:ANM:1,2011-04-01T11:54:00Z,27.5400,-82.7400,-0.159,1111122 
COMPS,ioos:station:USF.COMPS:ANM:1,2011-04-01T12:00:00Z,27.5400,-82.7400,-0.165,1111122 
COMPS,ioos:station:USF.COMPS:ANM:1,2011-04-01T12:06:00Z,27.5400,-82.7400,-0.162,1111122 
COMPS,ioos:station:USF.COMPS:ANM:1,2011-04-01T12:12:00Z,27.5400,-82.7400,-0.14,1111122 
COMPS,ioos:station:USF.COMPS:ANM:1,2011-04-01T12:18:00Z,27.5400,-82.7400,-0.146,1111122 
COMPS,ioos:station:USF.COMPS:ANM:1,2011-04-01T12:24:00Z,27.5400,-82.7400,-0.145,1111122 
COMPS,ioos:station:USF.COMPS:ANM:1,2011-04-01T12:30:00Z,27.5400,-82.7400,-0.111,1111122 
COMPS,ioos:station:USF.COMPS:ANM:1,2011-04-01T12:36:00Z,27.5400,-82.7400,-0.111,1111122 
COMPS,ioos:station:USF.COMPS:ANM:1,2011-04-01T12:42:00Z,27.5400,-82.7400,-0.095,1111122 
COMPS,ioos:station:USF.COMPS:ANM:1,2011-04-01T12:48:00Z,27.5400,-82.7400,-0.101,1111122 
COMPS,ioos:station:USF.COMPS:ANM:1,2011-04-01T12:54:00Z,27.5400,-82.7400,-0.087,1111122 
COMPS,ioos:station:USF.COMPS:ANM:1,2011-04-01T13:00:00Z,27.5400,-82.7400,-0.057,1111122 
COMPS,ioos:station:USF.COMPS:ANM:1,2011-04-01T13:06:00Z,27.5400,-82.7400,-0.065,1111122 
COMPS,ioos:station:USF.COMPS:ANM:1,2011-04-01T13:12:00Z,27.5400,-82.7400,-0.067,1111122 
COMPS,ioos:station:USF.COMPS:ANM:1,2011-04-01T13:18:00Z,27.5400,-82.7400,-0.058,1111122 
COMPS,ioos:station:USF.COMPS:ANM:1,2011-04-01T13:24:00Z,27.5400,-82.7400,-0.058,1111122 
COMPS,ioos:station:USF.COMPS:ANM:1,2011-04-01T13:30:00Z,27.5400,-82.7400,-0.048,1111122 
COMPS,ioos:station:USF.COMPS:ANM:1,2011-04-01T13:36:00Z,27.5400,-82.7400,-0.046,1111122 
COMPS,ioos:station:USF.COMPS:ANM:1,2011-04-01T13:42:00Z,27.5400,-82.7400,-0.049,1111122 
COMPS,ioos:station:USF.COMPS:ANM:1,2011-04-01T13:48:00Z,27.5400,-82.7400,-0.062,1111122 
COMPS,ioos:station:USF.COMPS:ANM:1,2011-04-01T13:54:00Z,27.5400,-82.7400,-0.044,1111122 
COMPS,ioos:station:USF.COMPS:ANM:1,2011-04-01T14:00:00Z,27.5400,-82.7400,-0.026,1111122 
COMPS,ioos:station:USF.COMPS:ANM:1,2011-04-01T14:06:00Z,27.5400,-82.7400,-0.033,1111122 
COMPS,ioos:station:USF.COMPS:ANM:1,2011-04-01T14:12:00Z,27.5400,-82.7400,-0.034,1111122 
COMPS,ioos:station:USF.COMPS:ANM:1,2011-04-01T14:18:00Z,27.5400,-82.7400,-0.023,1111122 
COMPS,ioos:station:USF.COMPS:ANM:1,2011-04-01T14:24:00Z,27.5400,-82.7400,-0.009,1111122 
COMPS,ioos:station:USF.COMPS:ANM:1,2011-04-01T14:30:00Z,27.5400,-82.7400,-0.015,1111122 
COMPS,ioos:station:USF.COMPS:ANM:1,2011-04-01T14:36:00Z,27.5400,-82.7400,-0.017,1111122 
COMPS,ioos:station:USF.COMPS:ANM:1,2011-04-01T14:42:00Z,27.5400,-82.7400,-0.006,1111122 
COMPS,ioos:station:USF.COMPS:ANM:1,2011-04-01T14:48:00Z,27.5400,-82.7400,-0.005,1111122 
COMPS,ioos:station:USF.COMPS:ANM:1,2011-04-01T14:54:00Z,27.5400,-82.7400,-0.023,1111122 
COMPS,ioos:station:USF.COMPS:ANM:1,2011-04-01T15:00:00Z,27.5400,-82.7400,-0.015,1111122 
COMPS,ioos:station:USF.COMPS:ANM:1,2011-04-01T15:06:00Z,27.5400,-82.7400,-0.015,1111122 
COMPS,ioos:station:USF.COMPS:ANM:1,2011-04-01T15:12:00Z,27.5400,-82.7400,-0.011,1111122 
COMPS,ioos:station:USF.COMPS:ANM:1,2011-04-01T15:18:00Z,27.5400,-82.7400,0.002,1111122 
COMPS,ioos:station:USF.COMPS:ANM:1,2011-04-01T15:24:00Z,27.5400,-82.7400,-0.003,1111122 
COMPS,ioos:station:USF.COMPS:ANM:1,2011-04-01T15:30:00Z,27.5400,-82.7400,-0.014,1111122 
COMPS,ioos:station:USF.COMPS:ANM:1,2011-04-01T15:36:00Z,27.5400,-82.7400,-0.017,1111122 
COMPS,ioos:station:USF.COMPS:ANM:1,2011-04-01T15:42:00Z,27.5400,-82.7400,-0.019,1111122 
COMPS,ioos:station:USF.COMPS:ANM:1,2011-04-01T15:48:00Z,27.5400,-82.7400,-0.001,1111122 
COMPS,ioos:station:USF.COMPS:ANM:1,2011-04-01T15:54:00Z,27.5400,-82.7400,0.013,1111122 
COMPS,ioos:station:USF.COMPS:ANM:1,2011-04-01T16:00:00Z,27.5400,-82.7400,0.007,1111122 
COMPS,ioos:station:USF.COMPS:ANM:1,2011-04-01T16:06:00Z,27.5400,-82.7400,-0.002,1111122 
COMPS,ioos:station:USF.COMPS:ANM:1,2011-04-01T16:12:00Z,27.5400,-82.7400,-0.01,1111122 
COMPS,ioos:station:USF.COMPS:ANM:1,2011-04-01T16:18:00Z,27.5400,-82.7400,-0.01,1111122 
COMPS,ioos:station:USF.COMPS:ANM:1,2011-04-01T16:24:00Z,27.5400,-82.7400,0.01,1111122 
COMPS,ioos:station:USF.COMPS:ANM:1,2011-04-01T16:30:00Z,27.5400,-82.7400,0.002,1111122 
COMPS,ioos:station:USF.COMPS:ANM:1,2011-04-01T16:36:00Z,27.5400,-82.7400,-0.006,1111122 
COMPS,ioos:station:USF.COMPS:ANM:1,2011-04-01T16:42:00Z,27.5400,-82.7400,-0.013,1111122 
COMPS,ioos:station:USF.COMPS:ANM:1,2011-04-01T16:48:00Z,27.5400,-82.7400,-0.017,1111122 
COMPS,ioos:station:USF.COMPS:ANM:1,2011-04-01T16:54:00Z,27.5400,-82.7400,-0.021,1111122 
COMPS,ioos:station:USF.COMPS:ANM:1,2011-04-01T17:00:00Z,27.5400,-82.7400,-0.042,1111122 
COMPS,ioos:station:USF.COMPS:ANM:1,2011-04-01T17:06:00Z,27.5400,-82.7400,-0.036,1111122 
COMPS,ioos:station:USF.COMPS:ANM:1,2011-04-01T17:12:00Z,27.5400,-82.7400,-0.044,1111122 
COMPS,ioos:station:USF.COMPS:ANM:1,2011-04-01T17:18:00Z,27.5400,-82.7400,-0.056,1111122 
COMPS,ioos:station:USF.COMPS:ANM:1,2011-04-01T17:24:00Z,27.5400,-82.7400,-0.052,1111122 
COMPS,ioos:station:USF.COMPS:ANM:1,2011-04-01T17:30:00Z,27.5400,-82.7400,-0.059,1111122 
COMPS,ioos:station:USF.COMPS:ANM:1,2011-04-01T17:36:00Z,27.5400,-82.7400,-0.081,1111122 
COMPS,ioos:station:USF.COMPS:ANM:1,2011-04-01T17:42:00Z,27.5400,-82.7400,-0.095,1111122 
COMPS,ioos:station:USF.COMPS:ANM:1,2011-04-01T17:48:00Z,27.5400,-82.7400,-0.105,1111122 
COMPS,ioos:station:USF.COMPS:ANM:1,2011-04-01T17:54:00Z,27.5400,-82.7400,-0.119,1111122 
COMPS,ioos:station:USF.COMPS:ANM:1,2011-04-01T18:00:00Z,27.5400,-82.7400,-0.132,1111122 
COMPS,ioos:station:USF.COMPS:ANM:1,2011-04-01T18:06:00Z,27.5400,-82.7400,-0.146,1111122 
COMPS,ioos:station:USF.COMPS:ANM:1,2011-04-01T18:12:00Z,27.5400,-82.7400,-0.162,1111122 
COMPS,ioos:station:USF.COMPS:ANM:1,2011-04-01T18:18:00Z,27.5400,-82.7400,-0.172,1111122 
COMPS,ioos:station:USF.COMPS:ANM:1,2011-04-01T18:24:00Z,27.5400,-82.7400,-0.176,1111122 
COMPS,ioos:station:USF.COMPS:ANM:1,2011-04-01T18:30:00Z,27.5400,-82.7400,-0.207,1111122 
COMPS,ioos:station:USF.COMPS:ANM:1,2011-04-01T18:36:00Z,27.5400,-82.7400,-0.208,1111122 
COMPS,ioos:station:USF.COMPS:ANM:1,2011-04-01T18:42:00Z,27.5400,-82.7400,-0.218,1111122 
COMPS,ioos:station:USF.COMPS:ANM:1,2011-04-01T18:48:00Z,27.5400,-82.7400,-0.224,1111122 
COMPS,ioos:station:USF.COMPS:ANM:1,2011-04-01T18:54:00Z,27.5400,-82.7400,-0.23,1111122 
COMPS,ioos:station:USF.COMPS:ANM:1,2011-04-01T19:00:00Z,27.5400,-82.7400,-0.251,1111122 
COMPS,ioos:station:USF.COMPS:ANM:1,2011-04-01T19:06:00Z,27.5400,-82.7400,-0.268,1111122 
COMPS,ioos:station:USF.COMPS:ANM:1,2011-04-01T19:12:00Z,27.5400,-82.7400,-0.273,1111122 
COMPS,ioos:station:USF.COMPS:ANM:1,2011-04-01T19:18:00Z,27.5400,-82.7400,-0.283,1111122 
COMPS,ioos:station:USF.COMPS:ANM:1,2011-04-01T19:24:00Z,27.5400,-82.7400,-0.283,1111122 
COMPS,ioos:station:USF.COMPS:ANM:1,2011-04-01T19:30:00Z,27.5400,-82.7400,-0.288,1111122 
COMPS,ioos:station:USF.COMPS:ANM:1,2011-04-01T19:36:00Z,27.5400,-82.7400,-0.296,1111122 
COMPS,ioos:station:USF.COMPS:ANM:1,2011-04-01T19:42:00Z,27.5400,-82.7400,-0.308,1111122 
COMPS,ioos:station:USF.COMPS:ANM:1,2011-04-01T19:48:00Z,27.5400,-82.7400,-0.32,1111122 
COMPS,ioos:station:USF.COMPS:ANM:1,2011-04-01T19:54:00Z,27.5400,-82.7400,-0.328,1111122 
COMPS,ioos:station:USF.COMPS:ANM:1,2011-04-01T20:00:00Z,27.5400,-82.7400,-0.342,1111122 
COMPS,ioos:station:USF.COMPS:ANM:1,2011-04-01T20:06:00Z,27.5400,-82.7400,-0.346,1111122 
COMPS,ioos:station:USF.COMPS:ANM:1,2011-04-01T20:12:00Z,27.5400,-82.7400,-0.355,1111122 
COMPS,ioos:station:USF.COMPS:ANM:1,2011-04-01T20:18:00Z,27.5400,-82.7400,-0.367,1111122 
COMPS,ioos:station:USF.COMPS:ANM:1,2011-04-01T20:24:00Z,27.5400,-82.7400,-0.379,1111122 
COMPS,ioos:station:USF.COMPS:ANM:1,2011-04-01T20:30:00Z,27.5400,-82.7400,-0.396,1111122 
COMPS,ioos:station:USF.COMPS:ANM:1,2011-04-01T20:36:00Z,27.5400,-82.7400,-0.405,1111122 
COMPS,ioos:station:USF.COMPS:ANM:1,2011-04-01T20:42:00Z,27.5400,-82.7400,-0.411,1111122 
COMPS,ioos:station:USF.COMPS:ANM:1,2011-04-01T20:48:00Z,27.5400,-82.7400,-0.421,1111122 
COMPS,ioos:station:USF.COMPS:ANM:1,2011-04-01T20:54:00Z,27.5400,-82.7400,-0.434,1111122 
COMPS,ioos:station:USF.COMPS:ANM:1,2011-04-01T21:00:00Z,27.5400,-82.7400,-0.44,1111122 
COMPS,ioos:station:USF.COMPS:ANM:1,2011-04-01T21:06:00Z,27.5400,-82.7400,-0.457,1111122 
COMPS,ioos:station:USF.COMPS:ANM:1,2011-04-01T21:12:00Z,27.5400,-82.7400,-0.465,1111122 
COMPS,ioos:station:USF.COMPS:ANM:1,2011-04-01T21:18:00Z,27.5400,-82.7400,-0.469,1111122 
COMPS,ioos:station:USF.COMPS:ANM:1,2011-04-01T21:24:00Z,27.5400,-82.7400,-0.476,1111122 
COMPS,ioos:station:USF.COMPS:ANM:1,2011-04-01T21:30:00Z,27.5400,-82.7400,-0.492,1111122 
COMPS,ioos:station:USF.COMPS:ANM:1,2011-04-01T21:36:00Z,27.5400,-82.7400,-0.487,1111122 
COMPS,ioos:station:USF.COMPS:ANM:1,2011-04-01T21:42:00Z,27.5400,-82.7400,-0.493,1111122 
COMPS,ioos:station:USF.COMPS:ANM:1,2011-04-01T21:48:00Z,27.5400,-82.7400,-0.498,1111122 
COMPS,ioos:station:USF.COMPS:ANM:1,2011-04-01T21:54:00Z,27.5400,-82.7400,-0.506,1111122 
COMPS,ioos:station:USF.COMPS:ANM:1,2011-04-01T22:00:00Z,27.5400,-82.7400,-0.499,1111122 
COMPS,ioos:station:USF.COMPS:ANM:1,2011-04-01T22:06:00Z,27.5400,-82.7400,-0.501,1111122 
COMPS,ioos:station:USF.COMPS:ANM:1,2011-04-01T22:12:00Z,27.5400,-82.7400,-0.493,1111122 
COMPS,ioos:station:USF.COMPS:ANM:1,2011-04-01T22:18:00Z,27.5400,-82.7400,-0.498,1111122 
COMPS,ioos:station:USF.COMPS:ANM:1,2011-04-01T22:24:00Z,27.5400,-82.7400,-0.501,1111122 
COMPS,ioos:station:USF.COMPS:ANM:1,2011-04-01T22:30:00Z,27.5400,-82.7400,-0.501,1111122 
COMPS,ioos:station:USF.COMPS:ANM:1,2011-04-01T22:36:00Z,27.5400,-82.7400,-0.49,1111122 
COMPS,ioos:station:USF.COMPS:ANM:1,2011-04-01T22:42:00Z,27.5400,-82.7400,-0.476,1111122 
COMPS,ioos:station:USF.COMPS:ANM:1,2011-04-01T22:48:00Z,27.5400,-82.7400,-0.47,1111122 
COMPS,ioos:station:USF.COMPS:ANM:1,2011-04-01T22:54:00Z,27.5400,-82.7400,-0.469,1111122 
COMPS,ioos:station:USF.COMPS:ANM:1,2011-04-01T23:00:00Z,27.5400,-82.7400,-0.455,1111122 
COMPS,ioos:station:USF.COMPS:ANM:1,2011-04-01T23:06:00Z,27.5400,-82.7400,-0.444,1111122 
COMPS,ioos:station:USF.COMPS:ANM:1,2011-04-01T23:12:00Z,27.5400,-82.7400,-0.438,1111122 
COMPS,ioos:station:USF.COMPS:ANM:1,2011-04-01T23:18:00Z,27.5400,-82.7400,-0.431,1111122 
COMPS,ioos:station:USF.COMPS:ANM:1,2011-04-01T23:24:00Z,27.5400,-82.7400,-0.43,1111122 
COMPS,ioos:station:USF.COMPS:ANM:1,2011-04-01T23:30:00Z,27.5400,-82.7400,-0.425,1111122 
COMPS,ioos:station:USF.COMPS:ANM:1,2011-04-01T23:36:00Z,27.5400,-82.7400,-0.403,1111122 
COMPS,ioos:station:USF.COMPS:ANM:1,2011-04-01T23:42:00Z,27.5400,-82.7400,-0.387,1111122 
COMPS,ioos:station:USF.COMPS:ANM:1,2011-04-01T23:48:00Z,27.5400,-82.7400,-0.383,1111122 
COMPS,ioos:station:USF.COMPS:ANM:1,2011-04-01T23:54:00Z,27.5400,-82.7400,-0.38,1111122 
COMPS,ioos:station:USF.COMPS:ANM:1,2011-04-02T00:00:00Z,27.5400,-82.7400,-0.364,1111122 
COMPS,ioos:station:USF.COMPS:ANM:1,2011-04-02T00:06:00Z,27.5400,-82.7400,-0.355,1111122 
COMPS,ioos:station:USF.COMPS:ANM:1,2011-04-02T00:12:00Z,27.5400,-82.7400,-0.339,1111122 
COMPS,ioos:station:USF.COMPS:ANM:1,2011-04-02T00:18:00Z,27.5400,-82.7400,-0.322,1111122 
COMPS,ioos:station:USF.COMPS:ANM:1,2011-04-02T00:24:00Z,27.5400,-82.7400,-0.319,1111122 
COMPS,ioos:station:USF.COMPS:ANM:1,2011-04-02T00:30:00Z,27.5400,-82.7400,-0.307,1111122 
COMPS,ioos:station:USF.COMPS:ANM:1,2011-04-02T00:36:00Z,27.5400,-82.7400,-0.304,1111122 
COMPS,ioos:station:USF.COMPS:ANM:1,2011-04-02T00:42:00Z,27.5400,-82.7400,-0.279,1111122 
COMPS,ioos:station:USF.COMPS:ANM:1,2011-04-02T00:48:00Z,27.5400,-82.7400,-0.266,1111122 
COMPS,ioos:station:USF.COMPS:ANM:1,2011-04-02T00:54:00Z,27.5400,-82.7400,-0.264,1111122 
COMPS,ioos:station:USF.COMPS:ANM:1,2011-04-02T01:00:00Z,27.5400,-82.7400,-0.25,1111122 
COMPS,ioos:station:USF.COMPS:ANM:1,2011-04-02T01:06:00Z,27.5400,-82.7400,-0.241,1111122 
COMPS,ioos:station:USF.COMPS:ANM:1,2011-04-02T01:12:00Z,27.5400,-82.7400,-0.237,1111122 
COMPS,ioos:station:USF.COMPS:ANM:1,2011-04-02T01:18:00Z,27.5400,-82.7400,-0.231,1111122 
COMPS,ioos:station:USF.COMPS:ANM:1,2011-04-02T01:24:00Z,27.5400,-82.7400,-0.221,1111122 
COMPS,ioos:station:USF.COMPS:ANM:1,2011-04-02T01:30:00Z,27.5400,-82.7400,-0.205,1111122 
COMPS,ioos:station:USF.COMPS:ANM:1,2011-04-02T01:36:00Z,27.5400,-82.7400,-0.187,1111122 
COMPS,ioos:station:USF.COMPS:ANM:1,2011-04-02T01:42:00Z,27.5400,-82.7400,-0.174,1111122 
COMPS,ioos:station:USF.COMPS:ANM:1,2011-04-02T01:48:00Z,27.5400,-82.7400,-0.188,1111122 
COMPS,ioos:station:USF.COMPS:ANM:1,2011-04-02T01:54:00Z,27.5400,-82.7400,-0.194,1111122 
COMPS,ioos:station:USF.COMPS:ANM:1,2011-04-02T02:00:00Z,27.5400,-82.7400,-0.165,1111122 
COMPS,ioos:station:USF.COMPS:ANM:1,2011-04-02T02:06:00Z,27.5400,-82.7400,-0.16,1111122 
COMPS,ioos:station:USF.COMPS:ANM:1,2011-04-02T02:12:00Z,27.5400,-82.7400,-0.155,1111122 
COMPS,ioos:station:USF.COMPS:ANM:1,2011-04-02T02:18:00Z,27.5400,-82.7400,-0.15,1111122 
COMPS,ioos:station:USF.COMPS:ANM:1,2011-04-02T02:24:00Z,27.5400,-82.7400,-0.135,1111122 
COMPS,ioos:station:USF.COMPS:ANM:1,2011-04-02T02:30:00Z,27.5400,-82.7400,-0.126,1111122 
COMPS,ioos:station:USF.COMPS:ANM:1,2011-04-02T02:36:00Z,27.5400,-82.7400,-0.127,1111122 
COMPS,ioos:station:USF.COMPS:ANM:1,2011-04-02T02:42:00Z,27.5400,-82.7400,-0.131,1111122 
COMPS,ioos:station:USF.COMPS:ANM:1,2011-04-02T02:48:00Z,27.5400,-82.7400,-0.122,1111122 